Home   Weather   Olpe   Past weeks

Flag for Germany Past Weather in Olpe, North Rhine-Westphalia, Germany — Yesterday and Last 2 Weeks

Now
50 °F

Passing clouds.


Feels Like: 46 °F
Forecast: 39 / 43 °F
Wind: 9 mph from Southwest

Location: Koeln / Bonn

Current Time: Dec 11, 2016 at 3:37:44 am

Latest Report: Dec 11, 2016 at 3:20 am


Visibility: N/A

Pressure: 30.01 "Hg

Humidity: 76%

Dew Point: 43 °F

Location of OlpeLocation

Past Weather in Olpe — Graph

°F

Olpe Temperature Yesterday

Maximum temperature yesterday: 54 °F (at 1:50 pm)
Minimum temperature yesterday: 39 °F (at 7:50 am)
Average temperature yesterday: 46 °F

High & Low Weather Summary for the Past Weeks

 TemperatureHumidityPressure
High54 °F (Dec 10, 1:50 pm)100% (Nov 26, 11:20 pm)30.57 "Hg (Nov 26, 11:20 pm)
Low18 °F (Nov 30, 6:50 am)45% (Nov 30, 1:20 pm)30.04 "Hg (Dec 11, 1:50 am)
Average36 °F82%30.34 "Hg
* Reported Nov 26 2:20 am — Dec 11 2:20 am, Olpe, Weather by CustomWeather, © 2016

Note: Actual official high and low records may vary slightly from our data, if they occured in-between our weather recording intervals... More about our weather records

Advertising

Olpe Weather History for the Previous 24 Hours

Scroll right to see more
 ConditionsComfort  
Time TempWeatherWind HumidityBarometerVisibility
2:20 am
Sun, Dec 11
48 °FPassing clouds.12 mph82%30.04 "HgN/A
1:50 am46 °FPassing clouds.9 mph87%30.04 "HgN/A
1:20 am46 °FPassing clouds.9 mph82%30.07 "HgN/A
12:50 am46 °FPassing clouds.6 mph82%30.09 "HgN/A
12:20 am46 °FPassing clouds.9 mph82%30.09 "HgN/A
11:50 pm
Sat, Dec 10
46 °FPassing clouds.7 mph87%30.09 "HgN/A
11:20 pm48 °FPassing clouds.9 mph82%30.12 "HgN/A
10:50 pm46 °FPassing clouds.13 mph87%30.12 "HgN/A
10:20 pm48 °FPassing clouds.13 mph76%30.12 "HgN/A
9:50 pm46 °FPassing clouds.12 mph82%30.15 "HgN/A
9:20 pm46 °FPassing clouds.13 mph82%30.15 "HgN/A
8:50 pm48 °FPassing clouds.12 mph76%30.15 "HgN/A
8:20 pm48 °FPassing clouds.9 mph76%30.15 "HgN/A
7:50 pm48 °FPassing clouds.10 mph76%30.18 "HgN/A
7:20 pm48 °FPassing clouds.9 mph76%30.18 "HgN/A
6:50 pm48 °FPassing clouds.7 mph76%30.18 "HgN/A
6:20 pm48 °FPassing clouds.3 mph76%30.21 "HgN/A
5:50 pm48 °FPassing clouds.8 mph76%30.21 "HgN/A
5:20 pm50 °FPassing clouds.7 mph71%30.21 "HgN/A
4:50 pm50 °FPassing clouds.3 mph71%30.21 "HgN/A
4:20 pm50 °FPartly sunny.3 mph76%30.21 "HgN/A
3:50 pm52 °FPartly sunny.2 mph67%30.21 "HgN/A
3:20 pm52 °FPartly sunny.3 mph67%30.21 "HgN/A
2:50 pm52 °FPartly sunny.2 mph67%30.21 "HgN/A
2:20 pm54 °FPassing clouds.5 mph63%30.21 "HgN/A
1:50 pm54 °FPassing clouds.5 mph58%30.24 "HgN/A
1:20 pm52 °FPassing clouds.5 mph67%30.24 "HgN/A
12:50 pm52 °FSunny.9 mph62%30.24 "Hg10 mi
12:20 pm48 °FSunny.10 mph71%30.24 "Hg10 mi
11:50 am48 °FSunny.12 mph71%30.24 "Hg10 mi
11:20 am46 °FSunny.9 mph76%30.27 "Hg10 mi
10:50 am45 °FSunny.9 mph81%30.27 "Hg10 mi
10:20 am43 °FSunny.9 mph81%30.27 "Hg10 mi
9:50 am43 °FPassing clouds.3 mph81%30.27 "HgN/A
9:20 am39 °FPassing clouds.6 mph93%30.27 "HgN/A
8:50 am39 °FPassing clouds.5 mph87%30.27 "HgN/A
8:20 am39 °FPassing clouds.5 mph93%30.27 "HgN/A
7:50 am39 °FClear.2 mph93%30.27 "Hg10 mi
7:20 am41 °FPassing clouds.5 mph87%30.24 "HgN/A
6:50 am41 °FClear.8 mph87%30.24 "Hg10 mi
6:20 am41 °FPassing clouds.6 mph87%30.27 "HgN/A
5:50 am41 °FClear.8 mph87%30.27 "Hg10 mi
5:20 am41 °FClear.8 mph87%30.27 "Hg10 mi
4:50 am41 °FClear.7 mph87%30.27 "Hg10 mi
4:20 am43 °FClear.7 mph81%30.30 "Hg10 mi
3:50 am41 °FClear.8 mph87%30.30 "Hg10 mi
3:20 am41 °FClear.10 mph87%30.30 "Hg10 mi
Weather by CustomWeather, © 2016

See weather overviewHow to use our weather pages